Date String (YYYY-MM-DD hh:mm:ss) UTC,Instrument flags,Ambient pressure (hPa),Sample flow (lpm),Bypass flow (lpm),Sample temperature (°C),Ambient temperature (°C),ASC tube jacket temperature (°C),LED temperature (°C),Box temperature (°C),Sample RH (%),Span deviation,Mass concentration (μg/m³),Mass concentration (μg/m³),Mass concentration (μg/m³)
DateTimeUTC,F1_M11,P_M11,Q1_M11,Q2_M11,T1_M11,T2_M11,T3_M11,T4_M11,T5_M11,U1_M11,ZSPAN_M11,X2_M11,X0_M11,X1_M11
2022-01-24 10:00:00,,0821.3,5.00,0.00,22.7,21.9,00.0,31.6,24.5,08.8,0000.0,0000.78,0001.95,0000.74
2022-01-24 10:01:00,,0821.3,5.00,0.00,22.7,21.9,00.0,31.6,24.4,08.8,0000.0,0000.77,0001.94,0000.73
2022-01-24 10:02:00,,0821.3,5.00,0.00,22.7,21.9,00.0,31.6,24.4,08.9,0000.0,0000.77,0001.96,0000.72
2022-01-24 10:03:00,,0821.3,4.99,0.00,22.7,21.9,00.0,31.6,24.4,08.9,0000.0,0000.77,0001.98,0000.72
2022-01-24 10:04:00,,0821.3,5.01,0.00,22.7,21.9,00.0,31.6,24.4,08.8,0000.0,0000.76,0001.96,0000.71
2022-01-24 10:05:00,,0821.4,5.01,0.00,22.7,21.9,00.0,31.6,24.5,08.7,0000.0,0000.75,0001.95,0000.69
2022-01-24 10:06:00,,0821.4,5.00,0.00,22.7,21.9,00.0,31.6,24.5,08.7,0000.0,0000.75,0001.96,0000.68
2022-01-24 10:07:00,,0821.4,5.00,0.00,22.7,21.9,00.0,31.6,24.4,08.7,0000.0,0000.75,0001.97,0000.68
2022-01-24 10:08:00,,0821.4,5.00,0.00,22.7,21.9,00.0,31.6,24.4,08.8,0000.0,0000.77,0002.02,0000.69
2022-01-24 10:09:00,,0821.4,5.00,0.00,22.7,21.9,00.0,31.6,24.4,09.2,0000.0,0000.81,0002.06,0000.72
2022-01-24 10:10:00,,0821.4,5.00,0.00,22.7,21.9,00.0,31.6,24.4,09.6,0000.0,0000.91,0001.66,0000.82
2022-01-24 10:11:00,,0821.3,5.01,0.00,22.7,21.9,00.0,31.6,24.4,09.5,0000.0,0001.12,0001.46,0001.00
2022-01-24 10:12:00,,0821.3,4.99,0.00,22.7,21.9,00.0,31.6,24.4,09.3,0000.0,0001.25,0001.72,0001.09
2022-01-24 10:13:00,,0821.3,5.00,0.00,22.7,21.9,00.0,31.6,24.4,09.1,0000.0,0001.32,0002.35,0001.15
2022-01-24 10:14:00,,0821.3,5.00,0.00,22.6,21.9,00.0,31.6,24.4,09.6,0000.0,0001.50,0002.57,0001.32
2022-01-24 10:15:00,,0821.2,4.99,0.00,22.6,21.9,00.0,31.6,24.4,09.7,0000.0,0001.69,0002.79,0001.51
2022-01-24 10:16:00,,0821.2,5.01,0.00,22.6,21.9,00.0,31.6,24.4,09.8,0000.0,0001.84,0003.51,0001.65
2022-01-24 10:17:00,,0821.2,5.00,0.00,22.6,21.9,00.0,31.6,24.4,09.8,0000.0,0002.08,0004.27,0001.88
2022-01-24 10:18:00,,0821.1,5.01,0.00,22.6,21.8,00.0,31.6,24.4,09.8,0000.0,0002.34,0004.57,0002.14
2022-01-24 10:19:00,,0821.2,5.01,0.00,22.6,21.8,00.0,31.6,24.3,09.5,0000.0,0002.50,0004.76,0002.28
2022-01-24 10:20:00,,0821.2,4.99,0.00,22.6,21.8,00.0,31.6,24.3,09.6,0000.0,0002.60,0004.96,0002.36
2022-01-24 10:21:00,,0821.2,5.00,0.00,22.6,21.8,00.0,31.6,24.3,09.8,0000.0,0002.70,0005.10,0002.41
2022-01-24 10:22:00,,0821.2,5.00,0.00,22.5,21.8,00.0,31.6,24.2,09.7,0000.0,0002.68,0006.14,0002.41
2022-01-24 10:23:00,,0821.2,5.00,0.00,22.5,21.8,00.0,31.6,24.2,09.5,0000.0,0002.69,0006.18,0002.42
2022-01-24 10:24:00,,0821.1,5.00,0.00,22.5,21.7,00.0,31.6,24.2,09.4,0000.0,0002.72,0005.71,0002.44
2022-01-24 10:25:00,,0821.1,5.01,0.00,22.5,21.7,00.0,31.5,24.2,09.3,0000.0,0002.65,0005.66,0002.35
2022-01-24 10:26:00,,0821.1,5.00,0.00,22.5,21.7,00.0,31.5,24.1,09.2,0000.0,0002.56,0005.58,0002.23
2022-01-24 10:27:00,,0821.1,5.00,0.00,22.4,21.6,00.0,31.5,24.1,09.5,0000.0,0002.53,0005.03,0002.19
2022-01-24 10:28:00,,0821.1,5.00,0.00,22.4,21.6,00.0,31.5,24.0,09.7,0000.0,0002.51,0004.60,0002.12
2022-01-24 10:29:00,,0821.0,5.01,0.00,22.4,21.6,00.0,31.5,24.0,09.9,0000.0,0002.48,0004.60,0002.09
2022-01-24 10:30:00,,0821.0,5.00,0.00,22.4,21.5,00.0,31.5,24.0,10.0,0000.0,0002.53,0005.75,0002.13
2022-01-24 10:31:00,,0821.0,5.00,0.00,22.4,21.5,00.0,31.5,24.0,09.9,0000.0,0002.63,0007.27,0002.23
2022-01-24 10:32:00,,0821.0,5.00,0.00,22.4,21.5,00.0,31.5,23.9,09.9,0000.0,0002.68,0007.37,0002.26
2022-01-24 10:33:00,,0821.0,5.01,0.00,22.3,21.5,00.0,31.4,23.9,09.8,0000.0,0002.67,0006.40,0002.24
2022-01-24 10:34:00,,0820.9,4.99,0.00,22.3,21.4,00.0,31.4,24.0,09.7,0000.0,0002.68,0006.38,0002.21
2022-01-24 10:35:00,,0821.0,5.00,0.00,22.3,21.5,00.0,31.4,24.0,09.6,0000.0,0002.68,0006.33,0002.21
2022-01-24 10:36:00,,0821.0,5.00,0.00,22.4,21.9,00.0,31.5,24.2,09.4,0000.0,0002.64,0006.29,0002.19
2022-01-24 10:37:00,,0821.0,5.02,0.00,22.5,22.7,00.0,31.5,24.5,08.7,0000.0,0002.57,0006.21,0002.14
2022-01-24 10:38:00,,0820.9,5.00,0.00,22.7,23.1,00.0,31.5,24.6,08.4,0000.0,0002.43,0006.04,0002.04
2022-01-24 10:39:00,,0821.0,5.01,0.00,22.7,22.9,00.0,31.6,24.7,08.5,0000.0,0002.21,0005.71,0001.86
2022-01-24 10:40:00,,0821.0,4.99,0.00,22.7,22.7,00.0,31.6,24.6,08.7,0000.0,0001.97,0005.39,0001.65
2022-01-24 10:41:00,,0820.9,5.00,0.00,22.7,22.6,00.0,31.6,24.6,08.7,0000.0,0001.73,0004.18,0001.44
2022-01-24 10:42:00,,0821.0,5.01,0.00,22.7,22.4,00.0,31.6,24.5,08.7,0000.0,0001.49,0002.40,0001.23
2022-01-24 10:43:00,,0821.0,5.00,0.00,22.7,22.3,00.0,31.6,24.4,08.8,0000.0,0001.21,0001.75,0001.01
2022-01-24 10:44:00,,0820.9,5.00,0.00,22.7,22.2,00.0,31.6,24.4,08.5,0000.0,0001.04,0001.50,0000.86
2022-01-24 10:45:00,,0820.9,4.99,0.00,22.6,22.1,00.0,31.6,24.4,08.5,0000.0,0000.88,0001.18,0000.75
2022-01-24 10:46:00,,0820.9,4.99,0.00,22.6,22.1,00.0,31.6,24.4,08.5,0000.0,0000.75,0000.99,0000.65
2022-01-24 10:47:00,,0820.9,5.01,0.00,22.6,22.0,00.0,31.6,24.3,08.5,0000.0,0000.67,0000.91,0000.58
2022-01-24 10:48:00,,0820.9,5.00,0.00,22.6,21.9,00.0,31.6,24.3,08.5,0000.0,0000.65,0000.88,0000.55
2022-01-24 10:49:00,,0821.0,4.99,0.00,22.6,21.9,00.0,31.6,24.3,08.5,0000.0,0000.65,0000.88,0000.55
2022-01-24 10:50:00,,0821.0,5.00,0.00,22.6,21.9,00.0,31.6,24.3,08.7,0000.0,0000.66,0000.91,0000.55
2022-01-24 10:51:00,,0821.0,4.99,0.00,22.5,21.8,00.0,31.6,24.3,08.8,0000.0,0000.67,0000.94,0000.54
2022-01-24 10:52:00,,0820.9,4.99,0.00,22.5,21.8,00.0,31.6,24.2,08.7,0000.0,0000.67,0000.96,0000.54
2022-01-24 10:53:00,,0821.0,5.01,0.00,22.5,21.7,00.0,31.6,24.2,08.6,0000.0,0000.66,0000.95,0000.52
2022-01-24 10:54:00,,0820.9,5.01,0.00,22.5,21.7,00.0,31.6,24.2,08.6,0000.0,0000.64,0000.92,0000.51
2022-01-24 10:55:00,,0821.0,4.99,0.00,22.5,21.7,00.0,31.6,24.2,09.0,0000.0,0000.63,0000.88,0000.51
2022-01-24 10:56:00,,0820.9,5.00,0.00,22.5,21.7,00.0,31.5,24.1,08.9,0000.0,0000.61,0000.83,0000.51
2022-01-24 10:57:00,,0820.9,5.01,0.00,22.4,21.6,00.0,31.5,24.1,08.7,0000.0,0000.59,0000.81,0000.50
2022-01-24 10:58:00,,0821.0,5.00,0.00,22.4,21.6,00.0,31.5,24.1,08.8,0000.0,0000.56,0000.75,0000.49
2022-01-24 10:59:00,,0821.0,5.00,0.00,22.4,21.6,00.0,31.5,24.1,08.8,0000.0,0000.54,0000.70,0000.48
